This demonstration page uses our WeatherBlox Daily Observations layout. Learn more.

Left ArrowRight Arrow

Hourly Observations for January 9, 2016

Temp ( °F °C ) Dew Point ( °F °C ) Humidity (%) Winds ( mph kmh ) Pressure ( in mb ) Visibility ( mi km ) Precip ( " mm )
12:53 am 00:53 Clear 35 1.7 30 -1.1 82 82 W 10 17 29.89 1012 10 16 0.00 0.00
1:53 am 01:53 Clear 35 1.7 30 -1.1 82 82 WNW 7 11 29.90 1012 10 16 0.00 0.00
2:53 am 02:53 Clear 32 0 29 -1.7 88 88 N 5 7 29.93 1013 10 16 0.00 0.00
3:53 am 03:53 Clear 32 0 28 -2.2 85 85 NNW 6 9 29.94 1014 10 16 0.00 0.00
4:53 am 04:53 Clear 32 0 28 -2.2 85 85 N 9 15 29.95 1014 10 16 0.00 0.00
5:09 am 05:09 Partly Cloudy 32 0 29 -1.7 88 88 NNE 13 20 30.09 1019 10 16 0.00 0.00
5:16 am 05:16 Mostly Cloudy with Mist and Fog 30 -1 30 -1 100 100 N 9 15 30.12 1020 3 5 0.00 0.00
5:21 am 05:21 Mostly Cloudy with Mist and Fog 32 0 30 -1.1 92 92 NNE 8 13 30.09 1019 2 3 0.00 0.00
5:43 am 05:43 Cloudy with Mist and Fog 32 0 31 -0.6 96 96 N 7 11 30.09 1019 3 4 0.00 0.00
5:50 am 05:50 Cloudy with Mist and Fog 32 0 30 -1 93 93 N 6 9 30.09 1019 3 5 0.00 0.00
5:53 am 05:53 Mostly Cloudy with Mist and Fog 32 0 30 -1.1 92 92 N 5 7 29.97 1015 3 5 0.00 0.00
6:01 am 06:01 Mostly Cloudy with Mist and Fog 31 -0.6 30 -1.1 96 96 NNW 3 6 30.12 1020 3 4 0.00 0.00
6:15 am 06:15 Mostly Cloudy with Mist and Fog 31 -0.6 29 -1.7 92 92 W 6 9 30.12 1020 1 1 0.00 0.00
6:21 am 06:21 Mostly Cloudy with Fog 32 0 30 -1.1 92 92 WNW 5 7 30.15 1021 0 0 0.00 0.00
6:37 am 06:37 Mostly Cloudy with Fog 32 0 31 -0.6 96 96 NW 7 11 30.15 1021 1 1 0.00 0.00
6:53 am 06:53 Cloudy with Mist and Fog 32 0 31 -0.6 96 96 NW 6 9 30.02 1017 2 3 0.00 0.00
6:58 am 06:58 Cloudy with Mist and Fog 32 0 30 -1 93 93 NW 6 9 30.15 1021 3 5 0.00 0.00
7:10 am 07:10 Mostly Cloudy with Mist and Fog 32 0 30 -1 93 93 WNW 5 7 30.18 1022 5 8 0.00 0.00
7:42 am 07:42 Partly Cloudy with Mist and Fog 30 -1 28 -2 93 93 WSW 8 13 30.18 1022 5 8 0.00 0.00
7:50 am 07:50 Mostly Cloudy with Mist and Fog 30 -1 28 -2 93 93 W 7 11 30.18 1022 6 10 0.00 0.00
7:53 am 07:53 Mostly Cloudy with Mist and Fog 31 -0.6 29 -1.7 92 92 W 7 11 30.06 1018 6 10 0.00 0.00
8:53 am 08:53 Cloudy with Mist and Fog 34 1.1 32 0 92 92 WNW 5 7 30.10 1019 6 10 0.00 0.00
9:53 am 09:53 Cloudy 37 2.8 34 1.1 89 89 NW 6 9 30.13 1020 10 16 0.00 0.00
10:53 am 10:53 Cloudy 39 3.9 31 -0.6 73 73 NNE 8 13 30.15 1021 10 16 0.00 0.00
11:53 am 11:53 Cloudy 41 5 30 -1.1 65 65 NNW 6 9 30.15 1021 10 16 0.00 0.00
12:53 pm 12:53 Cloudy 42 5.6 30 -1.1 62 62 WNW 6 9 30.12 1020 10 16 0.00 0.00
1:24 pm 13:24 Cloudy 43 6 30 -1 61 61 NW 7 11 30.18 1022 10 16 0.00 0.00
1:53 pm 13:53 Cloudy 44 6.7 30 -1.1 58 58 WNW 7 11 30.10 1019 10 16 0.00 0.00
2:53 pm 14:53 Mostly Cloudy 46 7.8 29 -1.7 51 51 W 9 15 30.08 1019 10 16 0.00 0.00
3:53 pm 15:53 Sunny 47 8.3 29 -1.7 50 50 NNW 8 13 30.07 1018 10 16 0.00 0.00
4:53 pm 16:53 Sunny 48 8.9 29 -1.7 48 48 VRB 3 6 30.08 1019 10 16 0.00 0.00
5:53 pm 17:53 Sunny 45 7.2 29 -1.7 54 54 ENE 3 6 30.08 1019 10 16 0.00 0.00
6:53 pm 18:53 Clear 42 5.6 28 -2.2 58 58 E 3 6 30.09 1019 10 16 0.00 0.00
7:53 pm 19:53 Clear 37 2.8 28 -2.2 70 70 E 7 11 30.12 1020 10 16 0.00 0.00
8:53 pm 20:53 Clear 35 1.7 27 -2.8 72 72 S 5 7 30.14 1021 10 16 0.00 0.00
9:53 pm 21:53 Mostly Clear 33 0.6 27 -2.8 78 78 S 3 6 30.16 1021 10 16 0.00 0.00
10:53 pm 22:53 Clear 32 0 26 -3.3 79 79 ESE 6 9 30.17 1022 10 16 0.00 0.00
11:53 pm 23:53 Clear 31 -0.6 26 -3.3 82 82 SE 6 9 30.18 1022 10 16 0.00 0.00

Powered by AerisWeather